• In Russia
  • List of Countries
  • For 7 days
  • Water Temperature
  • Satellite Maps
  • Weather Map
  • Weather Widgets
  • user-avatar
    Login

    Hourly Weather Linz

    Today, 5 December, Monday

    Time Temperature Precipitation Wind Pressure Humidity
    00:00 -2°C° 0 mm 1 mps 742 mmHg 83%
    01:00 -2°C° 0 mm 1 mps 742 mmHg 85%
    02:00 -2°C° 0 mm 1 mps 742 mmHg 85%
    03:00 -2°C° 0 mm 1 mps 742 mmHg 86%
    04:00 -2°C° 0 mm 1 mps 742 mmHg 86%
    05:00 -2°C° 0 mm 1 mps 742 mmHg 86%
    06:00 -2°C° 0 mm 1 mps 742 mmHg 86%
    07:00 -2°C° 0 mm 1 mps 742 mmHg 87%
    08:00 -1°C° 0 mm 1 mps 742 mmHg 79%
    09:00 0°C° 0 mm 0 mps 742 mmHg 71%
    10:00 +1°C° 0 mm 0 mps 742 mmHg 64%
    11:00 +3°C° 0 mm 0 mps 742 mmHg 61%
    12:00 +4°C° 0 mm 0 mps 741 mmHg 59%
    13:00 +5°C° 0 mm 0 mps 741 mmHg 56%
    14:00 +2°C° 0 mm 0 mps 741 mmHg 66%
    15:00 0°C° 0 mm 0 mps 740 mmHg 76%
    16:00 -2°C° 0 mm 0 mps 740 mmHg 86%
    17:00 -2°C° 0 mm 0 mps 740 mmHg 86%
    18:00 -2°C° 0 mm 0 mps 740 mmHg 85%
    19:00 -2°C° 0 mm 0 mps 740 mmHg 85%
    20:00 -1°C° 0 mm 1 mps 741 mmHg 85%
    21:00 -1°C° 0 mm 1 mps 741 mmHg 84%
    22:00 -1°C° 0 mm 1 mps 741 mmHg 84%
    23:00 -1°C° 0 mm 1 mps 741 mmHg 84%

    Tomorrow, 6 December, Tuesday

    Time Temperature Precipitation Wind Pressure Humidity
    00:00 -1°C° 0 mm 1 mps 741 mmHg 83%
    01:00 -1°C° 0 mm 1 mps 741 mmHg 83%
    02:00 -1°C° 0 mm 1 mps 741 mmHg 82%
    03:00 -1°C° 0 mm 1 mps 741 mmHg 82%
    04:00 -1°C° 0 mm 1 mps 741 mmHg 81%
    05:00 -1°C° 0 mm 1 mps 741 mmHg 81%
    06:00 -1°C° 0 mm 1 mps 741 mmHg 81%
    07:00 -1°C° 0 mm 1 mps 742 mmHg 81%
    08:00 0°C° 0 mm 1 mps 742 mmHg 75%
    09:00 +2°C° 0 mm 1 mps 742 mmHg 68%
    10:00 +3°C° 0 mm 1 mps 743 mmHg 62%
    11:00 +4°C° 0 mm 1 mps 743 mmHg 60%
    12:00 +5°C° 0 mm 1 mps 743 mmHg 58%
    13:00 +6°C° 0 mm 1 mps 742 mmHg 56%
    14:00 +4°C° 0 mm 1 mps 742 mmHg 66%
    15:00 +2°C° 0 mm 1 mps 743 mmHg 76%
    16:00 -1°C° 0 mm 1 mps 743 mmHg 86%
    17:00 -1°C° 0 mm 1 mps 743 mmHg 85%
    18:00 -1°C° 0 mm 1 mps 743 mmHg 84%
    19:00 -2°C° 0 mm 0 mps 744 mmHg 83%
    20:00 -2°C° 0 mm 0 mps 744 mmHg 82%
    21:00 -2°C° 0 mm 0 mps 744 mmHg 81%
    22:00 -3°C° 0 mm 0 mps 744 mmHg 81%
    23:00 -3°C° 0 mm 0 mps 744 mmHg 80%

    Day after tomorrow, 7 December, Wednesday

    Time Temperature Precipitation Wind Pressure Humidity
    00:00 -3°C° 0 mm 0 mps 744 mmHg 80%
    01:00 -3°C° 0 mm 0 mps 745 mmHg 79%
    02:00 -3°C° 0 mm 0 mps 745 mmHg 79%
    03:00 -3°C° 0 mm 0 mps 745 mmHg 78%
    04:00 -3°C° 0 mm 0 mps 745 mmHg 77%
    05:00 -2°C° 0 mm 1 mps 745 mmHg 77%
    06:00 -2°C° 0 mm 1 mps 745 mmHg 77%
    07:00 -2°C° 0 mm 1 mps 745 mmHg 77%
    08:00 0°C° 0 mm 1 mps 745 mmHg 69%
    09:00 +2°C° 0 mm 1 mps 746 mmHg 61%
    10:00 +3°C° 0 mm 1 mps 746 mmHg 53%
    11:00 +4°C° 0 mm 1 mps 746 mmHg 52%
    12:00 +5°C° 0 mm 1 mps 746 mmHg 51%
    13:00 +6°C° 0 mm 1 mps 745 mmHg 49%
    14:00 +4°C° 0 mm 1 mps 745 mmHg 59%
    15:00 +2°C° 0 mm 1 mps 745 mmHg 68%
    16:00 0°C° 0 mm 1 mps 745 mmHg 77%
    17:00 0°C° 0 mm 1 mps 745 mmHg 76%
    18:00 0°C° 0 mm 1 mps 745 mmHg 75%
    19:00 0°C° 0 mm 1 mps 745 mmHg 74%
    20:00 0°C° 0 mm 1 mps 745 mmHg 73%
    21:00 0°C° 0 mm 1 mps 745 mmHg 73%
    22:00 0°C° 0 mm 1 mps 745 mmHg 73%
    23:00 0°C° 0 mm 1 mps 745 mmHg 72%

    8 December, Thursday

    Time Temperature Precipitation Wind Pressure Humidity
    00:00 0°C° 0 mm 1 mps 745 mmHg 71%
    01:00 0°C° 0 mm 1 mps 745 mmHg 70%
    02:00 0°C° 0 mm 1 mps 745 mmHg 69%
    03:00 0°C° 0 mm 1 mps 745 mmHg 69%
    04:00 0°C° 0 mm 1 mps 744 mmHg 68%
    05:00 0°C° 0 mm 1 mps 744 mmHg 68%
    06:00 -1°C° 0 mm 0 mps 744 mmHg 69%
    07:00 -2°C° 0 mm 0 mps 744 mmHg 69%
    08:00 0°C° 0 mm 0 mps 744 mmHg 61%
    09:00 +2°C° 0 mm 0 mps 745 mmHg 53%
    10:00 +4°C° 0 mm 0 mps 745 mmHg 45%
    11:00 +5°C° 0 mm 0 mps 745 mmHg 44%
    12:00 +6°C° 0 mm 0 mps 744 mmHg 43%
    13:00 +8°C° 0 mm 0 mps 744 mmHg 42%
    14:00 +5°C° 0 mm 0 mps 744 mmHg 45%
    15:00 +3°C° 0 mm 0 mps 743 mmHg 48%
    16:00 +1°C° 0 mm 0 mps 743 mmHg 52%
    17:00 +1°C° 0 mm 0 mps 743 mmHg 52%
    18:00 +1°C° 0 mm 1 mps 743 mmHg 53%
    19:00 +1°C° 0 mm 1 mps 743 mmHg 54%
    20:00 +1°C° 0 mm 1 mps 743 mmHg 51%
    21:00 +2°C° 0 mm 1 mps 743 mmHg 49%
    22:00 +2°C° 0 mm 1 mps 744 mmHg 46%
    23:00 +2°C° 0 mm 1 mps 743 mmHg 46%

    9 December, Friday

    Time Temperature Precipitation Wind Pressure Humidity
    00:00 +2°C° 0 mm 1 mps 743 mmHg 45%
    01:00 +2°C° 0 mm 1 mps 743 mmHg 45%
    02:00 +2°C° 0 mm 1 mps 743 mmHg 45%
    03:00 +2°C° 0 mm 1 mps 743 mmHg 45%
    04:00 +2°C° 0 mm 1 mps 743 mmHg 45%
    05:00 +2°C° 0 mm 1 mps 743 mmHg 46%
    06:00 +2°C° 0 mm 1 mps 743 mmHg 47%
    07:00 +2°C° 0 mm 1 mps 744 mmHg 49%
    08:00 +3°C° 0 mm 1 mps 744 mmHg 47%
    09:00 +4°C° 0 mm 1 mps 744 mmHg 46%
    10:00 +5°C° 0 mm 1 mps 744 mmHg 45%
    11:00 +6°C° 0 mm 1 mps 743 mmHg 45%
    12:00 +7°C° 0 mm 1 mps 743 mmHg 45%
    13:00 +8°C° 0 mm 1 mps 743 mmHg 45%
    14:00 +6°C° 0 mm 1 mps 742 mmHg 51%
    15:00 +4°C° 0 mm 1 mps 742 mmHg 56%
    16:00 +2°C° 0 mm 1 mps 742 mmHg 62%
    17:00 +2°C° 0 mm 1 mps 742 mmHg 62%
    18:00 +2°C° 0 mm 1 mps 742 mmHg 61%
    19:00 +1°C° 0 mm 1 mps 742 mmHg 61%
    20:00 +2°C° 0 mm 1 mps 742 mmHg 60%
    21:00 +2°C° 0 mm 1 mps 742 mmHg 60%
    22:00 +2°C° 0 mm 1 mps 742 mmHg 59%
    23:00 +2°C° 0 mm 1 mps 742 mmHg 59%

    10 December, Saturday

    Time Temperature Precipitation Wind Pressure Humidity
    00:00 +2°C° 0 mm 1 mps 741 mmHg 59%
    01:00 +2°C° 0 mm 1 mps 741 mmHg 60%
    02:00 +1°C° 0 mm 1 mps 741 mmHg 60%
    03:00 +1°C° 0 mm 1 mps 740 mmHg 59%
    04:00 +1°C° 0 mm 1 mps 740 mmHg 59%
    05:00 +1°C° 0 mm 1 mps 740 mmHg 61%
    06:00 0°C° 0 mm 0 mps 739 mmHg 64%
    07:00 0°C° 0 mm 0 mps 739 mmHg 66%
    08:00 +2°C° 0 mm 0 mps 740 mmHg 60%
    09:00 +3°C° 0 mm 0 mps 740 mmHg 54%
    10:00 +5°C° 0 mm 0 mps 740 mmHg 48%
    11:00 +6°C° 0 mm 0 mps 739 mmHg 48%
    12:00 +7°C° 0 mm 0 mps 739 mmHg 47%
    13:00 +8°C° 0 mm 0 mps 739 mmHg 46%
    14:00 +7°C° 0 mm 1 mps 738 mmHg 52%
    15:00 +4°C° 0 mm 1 mps 738 mmHg 58%
    16:00 +2°C° 0 mm 1 mps 737 mmHg 64%
    17:00 +2°C° 0 mm 1 mps 737 mmHg 62%
    18:00 +2°C° 0 mm 1 mps 737 mmHg 60%
    19:00 +1°C° 0 mm 1 mps 737 mmHg 58%
    20:00 +2°C° 0 mm 1 mps 737 mmHg 54%
    21:00 +2°C° 0 mm 1 mps 737 mmHg 50%
    22:00 +2°C° 0 mm 1 mps 737 mmHg 46%
    23:00 +2°C° 0 mm 1 mps 737 mmHg 47%
    Show more